Location: Cran-Gévrier
(45.9039°N, 6.1012°E)
Time: 11:46:36
(UTC+00:00)

DIWATA 2B (PO-101) - Visible Passes

Search period start: 08 December 2023 00:00
Search period end: 18 December 2023 00:00
Orbit: 579 x 590 km, 98.0° (Epoch: 08 December)

Date Brightness Start Highest point End Pass type
(mag) Time Alt. Az. Time Alt. Az. Time Alt. Az.
08 Dec ? 16:58:22 10° NNW 17:00:47 15° WNW 17:03:12 10° W visible
09 Dec ? 17:05:05 10° NNW 17:07:06 13° WNW 17:09:06 10° W visible
10 Dec ? 17:11:55 10° NW 17:13:23 12° WNW 17:14:52 10° W visible
11 Dec ? 17:19:17 10° NW 17:19:41 10° WNW 17:20:05 10° WNW visible
